Das Wetter in  D-61279 Heinzenberg / Taunus





Wetter Minimum- & Maximum-Werte im Juni 2010

Standort: Heinzenberg / Taunus - Höhe 297 m         8 24' 1" Ost 50 21' 51" Nord
(   3-stündige Aktualisierung    letzte Aktualisierung um 19:04 am 30.06.2010  )


Messgrösse

Minimum

Maximum

Durchschnitt

Temperatur West /
Luftfeuchte West
Anklicken für Monats-Diagramm

3,5 C

05:43
22.06.2010

26 %

18:26
27.06.2010

31,1 C

17:27
28.06.2010

99 %

05:10
01.06.2010

Temp

16,9 C

Feuchte

70 %

Temperatur Ost /
Luftfeuchte Ost
Anklicken für Monats-Diagramm

3,5 C

05:58
22.06.2010

--

--
--

30,3 C

17:37
28.06.2010

--

--
--

16,7 C

--

Luftdruck Anklicken für Monats-Diagramm

1003,5 hPa

18:09
10.06.2010

1025,2 hPa

00:24
23.06.2010

1015,6 hPa

Taupunkt

2,2 C

05:43
22.06.2010

21,2 C

19:54
10.06.2010

10,7 C

Windchill
( gefühlte Temperatur )

3,4 C

10:26
19.06.2010

31,1 C

17:27
28.06.2010

15,9 C

Windgeschwindigkeit /
Windrichtung
Anklicken für Monats-Diagramm

---

52,0 km/h / W-SW

00:44
11.06.2010

6,8 km/h
W-NW

Helligkeit /
Sonnenschein
Anklicken für Monats-Diagramm
Anklicken für Monats-Diagramm

Sonnenschein:

264:48 Stunden

Max: 14:15 Std am
03.06.2010

130 klux

12:26
20.06.2010

42 klux

Solarstrahlung Anklicken für Monats-Diagramm

---

889 W/m

12:26
20.06.2010

310 W/m

Regenmenge
    Juni 2010
Anklicken für Monats-Diagramm

Insgesamt 65,4 l/m

in 30:26 Stunden
an 11 Tagen

19,9 l/m

23:29
09.06.2010

Gesamtmenge

65,4 l/m

Regen-Tage
    Juni 2010
Anklicken für Monats-Diagramm

>   0 mm/Tag

>   2 mm/Tag

>   5 mm/Tag

> 10 mm/Tag

> 20 mm/Tag

11 Tage     
6 Tage     
5 Tage     
2 Tage     
0 Tage     

Eisige Tage Juni 2010 / 2009

Tmin ≤ -10C     

0 Tage

/

0 Tage

Eistage Juni 2010 / 2009

Tmax <     0C     

0 Tage

/

0 Tage

Frosttage Juni 2010 / 2009

Tmin ≤     0C     

0 Tage

/

0 Tage

Kalte Tage Juni 2010 / 2009

Tmax <   10C     

0 Tage

/

  1 Tag

Warme Tage Juni 2010 / 2009

Tmax ≥   20C     

24 Tage

/

16 Tage

Sommertage Juni 2010 / 2009

Tmax ≥   25C     

15 Tage

/

7 Tage

Heisse Tage Juni 2010 / 2009

Tmax ≥   30C     

4 Tage

/

0 Tage


Monatsdiagramm Juni 2010

Die Kurven zeigen den Durchschnittswert des jeweiligen Tages an


Wetter-Monatsübersicht Juni 2010
Datum
  Temperatur
   Luftdruck
   Wind
  Regen
   Luftfeuchte
   Helligkeit

Sonnen-
schein


Temp.

Min.
Temp.

Max.
Temp.


Luftdruck

Min.
Luftdruck

Max.
Luftdruck

-Geschw.
Haupt-Richtg.

Max.
Wind

Menge /
Dauer


Feuchte

Min.
Feuchte

Max.
Feuchte


Helligkeit

Max.
Helligkeit

1.
Juni
12,8 C6,6 C
04:50
17,4 C
16:55
1015,5 hPa1013,0 hPa
18:40
1017,9 hPa
07:30
9,0 km/h
W-NW
27,8 km/h
14:55  
---
10 Minuten
81 %60 %
16:55
99 %
05:10
32,8 klux101,0 klux
11:25
3:50 Std 
2.
Juni
14,4 C10,6 C
03:56
19,6 C
12:41
1016,0 hPa1014,5 hPa
00:06
1018,8 hPa
23:57
6,7 km/h
N
23,8 km/h
15:46  
1,4 l/m
2:35 Stunden
78 %52 %
12:41
97 %
04:41
31 klux112 klux
12:36
4:30 Std 
3.
Juni
16,6 C7,7 C
05:37
25,8 C
18:17
1018,6 hPa1017,1 hPa
18:17
1020,2 hPa
06:27
8,5 km/h
NO
29,4 km/h
11:52  
---
63 %32 %
17:52
96 %
06:47
53 klux95 klux
13:07
14:15 Std 
4.
Juni
17,2 C7,6 C
05:33
27,0 C
16:53
1019,7 hPa1018,0 hPa
16:53
1021,5 hPa
23:59
5,3 km/h
SO
15,8 km/h
16:28  
---
65 %33 %
16:33
92 %
06:43
52,2 klux94,2 klux
12:38
14:10 Std 
5.
Juni
19,2 C9,2 C
05:24
28,8 C
17:29
1019,2 hPa1015,7 hPa
18:49
1022,1 hPa
05:44
2,6 km/h
SO
15,5 km/h
16:19  
---
63 %32 %
17:34
91 %
06:59
51,6 klux103,0 klux
13:59
13:10 Std 
6.
Juni
18,2 C10,6 C
05:40
28,3 C
15:15
1013,1 hPa1009,6 hPa
15:15
1017,4 hPa
01:30
5,9 km/h
W-SW
38,7 km/h
17:40  
9,3 l/m
4:35 Stunden
75 %37 %
12:35
96 %
23:56
39 klux95 klux
11:40
8:15 Std 
7.
Juni
16,8 C11,8 C
06:31
22,7 C
17:16
1011,8 hPa1010,3 hPa
18:36
1013,3 hPa
08:06
14,0 km/h
W
38,3 km/h
14:46  
3,3 l/m
2:10 Stunden
78 %47 %
17:36
98 %
03:06
39,6 klux109,0 klux
13:41
7:30 Std 
8.
Juni
16,2 C9,2 C
05:21
24,7 C
13:57
1008,4 hPa1005,8 hPa
13:57
1011,7 hPa
01:56
6,7 km/h
W-SW
31,8 km/h
17:52  
0,8 l/m
1:50 Stunden
78 %48 %
11:17
94 %
08:01
35 klux118 klux
14:02
4:53 Std 
9.
Juni
20,9 C15,2 C
05:58
28,8 C
16:28
1006,1 hPa1003,7 hPa
19:38
1008,9 hPa
23:44
7,7 km/h
W-SW
40,4 km/h
23:19  
19,9 l/m
2:26 Stunden
72 %44 %
16:38
95 %
23:44
39 klux107 klux
13:03
4:56 Std 
10.
Juni
20,3 C15,0 C
04:44
27,9 C
17:14
1005,8 hPa1003,5 hPa
18:09
1008,9 hPa
00:39
4,0 km/h
W-NW
33,5 km/h
00:34  
11,4 l/m
3:10 Stunden
86 %51 %
15:59
98 %
05:04
33 klux119 klux
12:29
4:05 Std 
11.
Juni
19,9 C15,6 C
08:09
26,3 C
18:04
1007,9 hPa1005,3 hPa
00:09
1010,0 hPa
07:59
16,8 km/h
W-SW
52,0 km/h
00:44  
9,9 l/m
4:00 Stunden
77 %41 %
18:09
97 %
01:44
45 klux118 klux
13:04
9:04 Std 
12.
Juni
16,8 C12,1 C
23:51
23,6 C
15:55
1011,0 hPa1009,0 hPa
15:55
1015,6 hPa
23:51
9,8 km/h
W
45,7 km/h
13:40  
0,5 l/m
2:20 Stunden
82 %55 %
15:45
94 %
08:05
30 klux125 klux
13:50
3:25 Std 
13.
Juni
14,3 C9,5 C
04:01
21,6 C
17:26
1015,7 hPa1012,6 hPa
19:16
1018,8 hPa
09:06
3,3 km/h
NW
15,8 km/h
14:06  
---
75 %45 %
17:06
97 %
04:16
47 klux111 klux
11:16
7:30 Std 
14.
Juni
16,2 C9,3 C
04:12
24,2 C
17:32
1014,6 hPa1013,5 hPa
00:02
1018,5 hPa
23:57
4,2 km/h
SO
16,4 km/h
15:17  
---
70 %37 %
17:27
94 %
06:27
49 klux104 klux
13:27
10:50 Std 
15.
Juni
16,0 C9,3 C
05:32
23,3 C
17:52
1019,7 hPa1018,4 hPa
17:52
1021,7 hPa
23:59
9,0 km/h
NO
27,3 km/h
18:32  
---
70 %43 %
17:52
95 %
07:27
49 klux107 klux
13:02
12:35 Std 
16.
Juni
15,5 C8,6 C
06:39
22,6 C
17:39
1019,8 hPa1017,4 hPa
17:39
1022,9 hPa
01:34
12,0 km/h
NO
34,9 km/h
16:44  
---
59 %38 %
17:59
83 %
06:54
50 klux98 klux
13:09
13:20 Std 
17.
Juni
13,6 C9,6 C
04:29
17,0 C
19:19
1017,0 hPa1014,0 hPa
20:34
1019,7 hPa
01:14
2,5 km/h
NO
18,0 km/h
09:14  
9,0 l/m
6:45 Stunden
84 %68 %
00:04
96 %
23:10
14,4 klux42,8 klux
16:24
35 Min 
18.
Juni
15,5 C10,2 C
06:25
22,5 C
11:55
1012,0 hPa1010,3 hPa
12:10
1014,4 hPa
02:10
11,2 km/h
W-NW
35,5 km/h
16:30  
---
78 %46 %
12:20
99 %
07:45
43,4 klux115,0 klux
13:20
8:20 Std 
19.
Juni
11,7 C9,0 C
06:16
16,0 C
17:16
1009,3 hPa1007,9 hPa
17:16
1011,4 hPa
00:51
13,4 km/h
NW
31,2 km/h
18:06  
---
25 Minuten
70 %52 %
17:21
86 %
10:51
29 klux110 klux
14:36
2:41 Std 
20.
Juni
11,3 C6,2 C
04:36
16,1 C
15:16
1013,3 hPa1009,7 hPa
00:01
1017,7 hPa
23:52
6,6 km/h
NW
22,7 km/h
14:56  
---
74 %54 %
13:36
91 %
05:06
32 klux130 klux
12:26
2:50 Std 
21.
Juni
12,0 C7,8 C
23:58
19,0 C
18:17
1020,4 hPa1017,8 hPa
00:02
1023,4 hPa
23:58
7,3 km/h
NW
23,3 km/h
13:42  
---
69 %42 %
15:22
89 %
05:22
34 klux123 klux
13:07
6:30 Std 
22.
Juni
12,8 C3,5 C
05:43
21,9 C
17:23
1023,5 hPa1021,6 hPa
18:28
1025,1 hPa
23:44
3,1 km/h
W-NW
16,1 km/h
15:38  
---
66 %36 %
17:23
93 %
07:08
47 klux113 klux
12:33
10:10 Std 
23.
Juni
15,9 C6,6 C
05:09
25,5 C
17:09
1022,2 hPa1019,2 hPa
18:24
1025,2 hPa
00:24
3,1 km/h
W-NW
14,8 km/h
12:24  
---
64 %32 %
17:04
93 %
07:19
48 klux107 klux
13:09
10:35 Std 
24.
Juni
18,8 C9,4 C
06:39
28,3 C
17:24
1018,5 hPa1015,0 hPa
19:39
1021,1 hPa
06:39
3,5 km/h
NW
17,3 km/h
17:19  
---
62 %32 %
13:09
91 %
07:09
50 klux94 klux
12:44
13:39 Std 
25.
Juni
19,5 C11,6 C
06:44
27,6 C
18:29
1015,7 hPa1013,8 hPa
18:29
1017,5 hPa
02:59
6,5 km/h
W-NW
24,1 km/h
16:59  
---
66 %34 %
17:39
91 %
07:09
45,8 klux96,0 klux
14:59
11:45 Std 
26.
Juni
19,3 C10,5 C
06:20
28,3 C
18:20
1017,1 hPa1015,8 hPa
18:20
1018,8 hPa
07:10
4,5 km/h
SO
16,3 km/h
03:35  
---
61 %30 %
17:30
91 %
06:35
51,1 klux98,3 klux
12:00
14:05 Std 
27.
Juni
20,1 C10,1 C
05:56
30,0 C
18:16
1018,8 hPa1016,6 hPa
18:16
1020,4 hPa
08:41
3,8 km/h
SO
18,8 km/h
14:56  
---
60 %26 %
18:26
90 %
06:41
50,2 klux96,8 klux
13:11
14:15 Std 
28.
Juni
21,5 C11,7 C
06:07
31,1 C
17:27
1018,5 hPa1016,5 hPa
17:27
1020,6 hPa
07:32
3,0 km/h
W-NW
15,3 km/h
14:42  
---
61 %28 %
14:22
91 %
07:12
48,9 klux95,4 klux
13:07
12:35 Std 
29.
Juni
21,7 C14,2 C
06:13
30,4 C
16:03
1018,4 hPa1016,6 hPa
16:03
1019,9 hPa
23:59
5,0 km/h
NW
26,0 km/h
16:43  
---
63 %33 %
15:43
87 %
06:33
42,8 klux102,0 klux
14:28
8:40 Std 
30.
Juni
21,4 C13,4 C
05:49
30,1 C
17:34
1019,3 hPa1016,6 hPa
17:34
1021,6 hPa
06:19
4,8 km/h
W-NW
22,3 km/h
13:29  
---
62 %26 %
17:39
92 %
06:29
48 klux95 klux
14:19
11:50 Std 



Juni
2010

Temperatur

  

Luftdruck

  

Wind

  

Regen

  

Luftfeuchte

  

Helligkeit

Sonnen-
schein

Min

Max

Min

Max

Max

Max

Min

Max

Max

Max

16,9 C

3,5 C

05:43 Uhr
22.06.2010

31,1 C

17:27 Uhr
28.06.2010

1015,6 hPa

1003,5 hPa

18:09 Uhr
10.06.2010

1025,2 hPa

00:24 Uhr
23.06.2010

6,8 km/h

W-NW

52,0 km/h

00:44 Uhr
11.06.2010

19,9 l/m

2:26 Stunden
09.06.2010

70 %

26 %

18:26 Uhr
27.06.2010

99 %

05:10 Uhr
01.06.2010

42,0 klux

130,0 klux

12:26 Uhr
20.06.2010

14:15 Std

am
03.06.2010

Gesamt

Gesamt

65,4 l/m

11 Tage
30:26 h

264:48 Std


Wetter-Diagramme Juni 2010     Heinzenberg / Taunus   
TemperaturLuftfeuchte
SolarstrahlungLuftdruck
HelligkeitSonnenschein
RegenmengeRegendauer
Wind-GeschwindigkeitWind-Richtung